owner,sensor,date,latitude,longitude,vertical_datum,sea_water_temperature,qcFlag 
ADCP,ioos:station:wmo:42395:1,2017-09-01T01:00:00Z,26.4040,-90.7920,0.0,30.23,2 
ADCP,ioos:station:wmo:42395:1,2017-09-01T02:20:00Z,26.4040,-90.7920,0.0,30.23,2 
ADCP,ioos:station:wmo:42395:1,2017-09-01T03:20:00Z,26.4040,-90.7920,0.0,30.23,2 
ADCP,ioos:station:wmo:42395:1,2017-09-01T04:20:00Z,26.4040,-90.7920,0.0,30.23,2 
ADCP,ioos:station:wmo:42395:1,2017-09-01T04:40:00Z,26.4040,-90.7920,0.0,30.2,11111222 
ADCP,ioos:station:wmo:42395:1,2017-09-01T05:40:00Z,26.4040,-90.7920,0.0,30.23,2 
ADCP,ioos:station:wmo:42395:1,2017-09-01T06:40:00Z,26.4040,-90.7920,0.0,30.2,2 
ADCP,ioos:station:wmo:42395:1,2017-09-01T08:20:00Z,26.4040,-90.7920,0.0,30.2,2 
ADCP,ioos:station:wmo:42395:1,2017-09-01T09:20:00Z,26.4040,-90.7920,0.0,30.2,2 
ADCP,ioos:station:wmo:42395:1,2017-09-01T10:20:00Z,26.4040,-90.7920,0.0,30.2,2 
ADCP,ioos:station:wmo:42395:1,2017-09-01T11:20:00Z,26.4040,-90.7920,0.0,30.2,2 
ADCP,ioos:station:wmo:42395:1,2017-09-01T12:40:00Z,26.4040,-90.7920,0.0,30.2,2 
ADCP,ioos:station:wmo:42395:1,2017-09-01T13:40:00Z,26.4040,-90.7920,0.0,30.2,2 
ADCP,ioos:station:wmo:42395:1,2017-09-01T15:20:00Z,26.4040,-90.7920,0.0,30.04,2 
ADCP,ioos:station:wmo:42395:1,2017-09-01T16:20:00Z,26.4040,-90.7920,0.0,30.12,2 
ADCP,ioos:station:wmo:42395:1,2017-09-01T17:20:00Z,26.4040,-90.7920,0.0,30.16,2 
ADCP,ioos:station:wmo:42395:1,2017-09-01T18:20:00Z,26.4040,-90.7920,0.0,30.2,2 
ADCP,ioos:station:wmo:42395:1,2017-09-01T19:40:00Z,26.4040,-90.7920,0.0,30.2,2 
ADCP,ioos:station:wmo:42395:1,2017-09-01T21:00:00Z,26.4040,-90.7920,0.0,30.31,2 
ADCP,ioos:station:wmo:42395:1,2017-09-01T22:20:00Z,26.4040,-90.7920,0.0,30.39,2 
ADCP,ioos:station:wmo:42395:1,2017-09-01T23:20:00Z,26.4040,-90.7920,0.0,30.35,2 
ADCP,ioos:station:wmo:42395:1,2017-09-02T00:20:00Z,26.4040,-90.7920,0.0,30.31,2 
ADCP,ioos:station:wmo:42395:1,2017-09-02T01:20:00Z,26.4040,-90.7920,0.0,30.16,2 
ADCP,ioos:station:wmo:42395:1,2017-09-02T02:40:00Z,26.4040,-90.7920,0.0,30.08,2 
ADCP,ioos:station:wmo:42395:1,2017-09-02T03:40:00Z,26.4040,-90.7920,0.0,30.08,2 
ADCP,ioos:station:wmo:42395:1,2017-09-02T05:20:00Z,26.4040,-90.7920,0.0,30.12,2 
ADCP,ioos:station:wmo:42395:1,2017-09-02T06:20:00Z,26.4040,-90.7920,0.0,30.12,2 
ADCP,ioos:station:wmo:42395:1,2017-09-02T07:20:00Z,26.4040,-90.7920,0.0,30.12,2 
ADCP,ioos:station:wmo:42395:1,2017-09-02T08:40:00Z,26.4040,-90.7920,0.0,30.12,2 
ADCP,ioos:station:wmo:42395:1,2017-09-02T09:40:00Z,26.4040,-90.7920,0.0,30.12,2 
ADCP,ioos:station:wmo:42395:1,2017-09-02T11:00:00Z,26.4040,-90.7920,0.0,30.08,2 
ADCP,ioos:station:wmo:42395:1,2017-09-02T12:20:00Z,26.4040,-90.7920,0.0,30.08,2 
ADCP,ioos:station:wmo:42395:1,2017-09-02T13:20:00Z,26.4040,-90.7920,0.0,30.08,2 
ADCP,ioos:station:wmo:42395:1,2017-09-02T14:20:00Z,26.4040,-90.7920,0.0,30.16,2 
ADCP,ioos:station:wmo:42395:1,2017-09-02T15:40:00Z,26.4040,-90.7920,0.0,30.23,2 
ADCP,ioos:station:wmo:42395:1,2017-09-02T16:40:00Z,26.4040,-90.7920,0.0,30.47,2 
ADCP,ioos:station:wmo:42395:1,2017-09-02T18:00:00Z,26.4040,-90.7920,0.0,30.7,2 
ADCP,ioos:station:wmo:42395:1,2017-09-02T19:20:00Z,26.4040,-90.7920,0.0,31.05,2 
ADCP,ioos:station:wmo:42395:1,2017-09-02T20:20:00Z,26.4040,-90.7920,0.0,31.05,2 
ADCP,ioos:station:wmo:42395:1,2017-09-02T21:20:00Z,26.4040,-90.7920,0.0,30.98,2 
ADCP,ioos:station:wmo:42395:1,2017-09-02T22:40:00Z,26.4040,-90.7920,0.0,31.09,2 
ADCP,ioos:station:wmo:42395:1,2017-09-02T23:40:00Z,26.4040,-90.7920,0.0,30.9,2 
ADCP,ioos:station:wmo:42395:1,2017-09-03T01:20:00Z,26.4040,-90.7920,0.0,30.66,2 
ADCP,ioos:station:wmo:42395:1,2017-09-03T02:20:00Z,26.4040,-90.7920,0.0,30.55,2 
ADCP,ioos:station:wmo:42395:1,2017-09-03T03:20:00Z,26.4040,-90.7920,0.0,30.47,2 
ADCP,ioos:station:wmo:42395:1,2017-09-03T04:20:00Z,26.4040,-90.7920,0.0,30.39,2 
ADCP,ioos:station:wmo:42395:1,2017-09-03T05:40:00Z,26.4040,-90.7920,0.0,30.35,2 
ADCP,ioos:station:wmo:42395:1,2017-09-03T06:40:00Z,26.4040,-90.7920,0.0,30.31,2 
ADCP,ioos:station:wmo:42395:1,2017-09-03T08:20:00Z,26.4040,-90.7920,0.0,30.27,2 
ADCP,ioos:station:wmo:42395:1,2017-09-03T09:20:00Z,26.4040,-90.7920,0.0,30.27,2 
ADCP,ioos:station:wmo:42395:1,2017-09-03T10:20:00Z,26.4040,-90.7920,0.0,30.27,2 
ADCP,ioos:station:wmo:42395:1,2017-09-03T11:20:00Z,26.4040,-90.7920,0.0,30.23,2 
ADCP,ioos:station:wmo:42395:1,2017-09-03T12:40:00Z,26.4040,-90.7920,0.0,30.23,2 
ADCP,ioos:station:wmo:42395:1,2017-09-03T13:40:00Z,26.4040,-90.7920,0.0,30.23,2 
ADCP,ioos:station:wmo:42395:1,2017-09-03T15:20:00Z,26.4040,-90.7920,0.0,30.23,2 
ADCP,ioos:station:wmo:42395:1,2017-09-03T16:20:00Z,26.4040,-90.7920,0.0,30.27,2 
ADCP,ioos:station:wmo:42395:1,2017-09-03T17:20:00Z,26.4040,-90.7920,0.0,30.31,2 
ADCP,ioos:station:wmo:42395:1,2017-09-03T18:20:00Z,26.4040,-90.7920,0.0,30.39,2 
ADCP,ioos:station:wmo:42395:1,2017-09-03T19:40:00Z,26.4040,-90.7920,0.0,30.59,2 
ADCP,ioos:station:wmo:42395:1,2017-09-03T20:40:00Z,26.4040,-90.7920,0.0,30.51,2 
ADCP,ioos:station:wmo:42395:1,2017-09-03T22:20:00Z,26.4040,-90.7920,0.0,30.51,2 
ADCP,ioos:station:wmo:42395:1,2017-09-03T23:20:00Z,26.4040,-90.7920,0.0,30.47,2 
ADCP,ioos:station:wmo:42395:1,2017-09-04T00:20:00Z,26.4040,-90.7920,0.0,30.43,2 
ADCP,ioos:station:wmo:42395:1,2017-09-04T01:20:00Z,26.4040,-90.7920,0.0,30.39,2 
ADCP,ioos:station:wmo:42395:1,2017-09-04T02:40:00Z,26.4040,-90.7920,0.0,30.39,2 
ADCP,ioos:station:wmo:42395:1,2017-09-04T03:40:00Z,26.4040,-90.7920,0.0,30.35,2 
ADCP,ioos:station:wmo:42395:1,2017-09-04T05:20:00Z,26.4040,-90.7920,0.0,30.31,2 
ADCP,ioos:station:wmo:42395:1,2017-09-04T06:20:00Z,26.4040,-90.7920,0.0,30.27,2 
ADCP,ioos:station:wmo:42395:1,2017-09-04T07:20:00Z,26.4040,-90.7920,0.0,30.27,2 
ADCP,ioos:station:wmo:42395:1,2017-09-04T08:20:00Z,26.4040,-90.7920,0.0,30.27,2 
ADCP,ioos:station:wmo:42395:1,2017-09-04T09:40:00Z,26.4040,-90.7920,0.0,30.23,2 
ADCP,ioos:station:wmo:42395:1,2017-09-04T11:00:00Z,26.4040,-90.7920,0.0,30.23,2 
ADCP,ioos:station:wmo:42395:1,2017-09-04T12:20:00Z,26.4040,-90.7920,0.0,30.23,2 
ADCP,ioos:station:wmo:42395:1,2017-09-04T13:20:00Z,26.4040,-90.7920,0.0,30.23,2 
ADCP,ioos:station:wmo:42395:1,2017-09-04T14:40:00Z,26.4040,-90.7920,0.0,30.23,2 
ADCP,ioos:station:wmo:42395:1,2017-09-04T15:20:00Z,26.4040,-90.7920,0.0,30.23,2 
ADCP,ioos:station:wmo:42395:1,2017-09-04T16:40:00Z,26.4040,-90.7920,0.0,30.23,2 
ADCP,ioos:station:wmo:42395:1,2017-09-04T18:00:00Z,26.4040,-90.7920,0.0,30.39,2 
ADCP,ioos:station:wmo:42395:1,2017-09-04T19:20:00Z,26.4040,-90.7920,0.0,30.51,2 
ADCP,ioos:station:wmo:42395:1,2017-09-04T20:20:00Z,26.4040,-90.7920,0.0,30.51,2 
ADCP,ioos:station:wmo:42395:1,2017-09-04T21:20:00Z,26.4040,-90.7920,0.0,30.5,11111222 
ADCP,ioos:station:wmo:42395:1,2017-09-04T22:40:00Z,26.4040,-90.7920,0.0,30.55,2 
ADCP,ioos:station:wmo:42395:1,2017-09-04T23:40:00Z,26.4040,-90.7920,0.0,30.43,2 
ADCP,ioos:station:wmo:42395:1,2017-09-05T01:00:00Z,26.4040,-90.7920,0.0,30.43,2 
ADCP,ioos:station:wmo:42395:1,2017-09-05T02:20:00Z,26.4040,-90.7920,0.0,30.35,2 
ADCP,ioos:station:wmo:42395:1,2017-09-05T03:20:00Z,26.4040,-90.7920,0.0,30.31,2 
ADCP,ioos:station:wmo:42395:1,2017-09-05T04:20:00Z,26.4040,-90.7920,0.0,30.31,2 
ADCP,ioos:station:wmo:42395:1,2017-09-05T05:40:00Z,26.4040,-90.7920,0.0,30.27,2 
ADCP,ioos:station:wmo:42395:1,2017-09-05T06:40:00Z,26.4040,-90.7920,0.0,30.27,2 
ADCP,ioos:station:wmo:42395:1,2017-09-05T08:20:00Z,26.4040,-90.7920,0.0,30.23,2 
ADCP,ioos:station:wmo:42395:1,2017-09-05T09:20:00Z,26.4040,-90.7920,0.0,30.23,2 
ADCP,ioos:station:wmo:42395:1,2017-09-05T10:20:00Z,26.4040,-90.7920,0.0,30.23,2 
ADCP,ioos:station:wmo:42395:1,2017-09-05T11:20:00Z,26.4040,-90.7920,0.0,30.23,2 
ADCP,ioos:station:wmo:42395:1,2017-09-05T12:40:00Z,26.4040,-90.7920,0.0,30.23,2 
ADCP,ioos:station:wmo:42395:1,2017-09-05T13:40:00Z,26.4040,-90.7920,0.0,30.23,2 
ADCP,ioos:station:wmo:42395:1,2017-09-05T15:20:00Z,26.4040,-90.7920,0.0,30.2,2 
ADCP,ioos:station:wmo:42395:1,2017-09-05T16:20:00Z,26.4040,-90.7920,0.0,30.2,2 
ADCP,ioos:station:wmo:42395:1,2017-09-05T17:20:00Z,26.4040,-90.7920,0.0,30.2,2 
ADCP,ioos:station:wmo:42395:1,2017-09-05T18:20:00Z,26.4040,-90.7920,0.0,30.2,2 
ADCP,ioos:station:wmo:42395:1,2017-09-05T19:40:00Z,26.4040,-90.7920,0.0,30.2,2 
ADCP,ioos:station:wmo:42395:1,2017-09-05T20:40:00Z,26.4040,-90.7920,0.0,30.2,2 
ADCP,ioos:station:wmo:42395:1,2017-09-05T22:20:00Z,26.4040,-90.7920,0.0,30.2,2 
ADCP,ioos:station:wmo:42395:1,2017-09-05T23:20:00Z,26.4040,-90.7920,0.0,30.16,2 
ADCP,ioos:station:wmo:42395:1,2017-09-06T00:20:00Z,26.4040,-90.7920,0.0,30.1,11111222 
ADCP,ioos:station:wmo:42395:1,2017-09-06T01:20:00Z,26.4040,-90.7920,0.0,30.1,11111222 
ADCP,ioos:station:wmo:42395:1,2017-09-06T02:40:00Z,26.4040,-90.7920,0.0,30.0,11111222 
ADCP,ioos:station:wmo:42395:1,2017-09-06T03:40:00Z,26.4040,-90.7920,0.0,30.1,11111222 
ADCP,ioos:station:wmo:42395:1,2017-09-06T05:20:00Z,26.4040,-90.7920,0.0,30.0,11111222 
ADCP,ioos:station:wmo:42395:1,2017-09-06T06:20:00Z,26.4040,-90.7920,0.0,30.0,11111222 
ADCP,ioos:station:wmo:42395:1,2017-09-06T07:20:00Z,26.4040,-90.7920,0.0,29.8,11111222 
ADCP,ioos:station:wmo:42395:1,2017-09-06T08:40:00Z,26.4040,-90.7920,0.0,29.9,11111222 
ADCP,ioos:station:wmo:42395:1,2017-09-06T09:40:00Z,26.4040,-90.7920,0.0,30.0,11111222 
ADCP,ioos:station:wmo:42395:1,2017-09-06T11:00:00Z,26.4040,-90.7920,0.0,30.0,11111222 
ADCP,ioos:station:wmo:42395:1,2017-09-06T12:20:00Z,26.4040,-90.7920,0.0,30.0,11111222 
ADCP,ioos:station:wmo:42395:1,2017-09-06T13:20:00Z,26.4040,-90.7920,0.0,30.0,11111222 
ADCP,ioos:station:wmo:42395:1,2017-09-06T14:20:00Z,26.4040,-90.7920,0.0,30.0,11111222 
ADCP,ioos:station:wmo:42395:1,2017-09-06T15:40:00Z,26.4040,-90.7920,0.0,30.0,11111222 
ADCP,ioos:station:wmo:42395:1,2017-09-06T17:00:00Z,26.4040,-90.7920,0.0,30.0,11111222 
ADCP,ioos:station:wmo:42395:1,2017-09-06T18:00:00Z,26.4040,-90.7920,0.0,30.0,11111222 
ADCP,ioos:station:wmo:42395:1,2017-09-06T19:20:00Z,26.4040,-90.7920,0.0,30.0,11111222 
ADCP,ioos:station:wmo:42395:1,2017-09-06T20:20:00Z,26.4040,-90.7920,0.0,30.1,11111222 
ADCP,ioos:station:wmo:42395:1,2017-09-06T21:20:00Z,26.4040,-90.7920,0.0,30.2,11111222 
ADCP,ioos:station:wmo:42395:1,2017-09-06T22:40:00Z,26.4040,-90.7920,0.0,30.1,11111222 
ADCP,ioos:station:wmo:42395:1,2017-09-06T23:40:00Z,26.4040,-90.7920,0.0,30.1,11111222 
ADCP,ioos:station:wmo:42395:1,2017-09-07T01:20:00Z,26.4040,-90.7920,0.0,30.0,11111222 
ADCP,ioos:station:wmo:42395:1,2017-09-07T02:20:00Z,26.4040,-90.7920,0.0,30.0,11111222 
ADCP,ioos:station:wmo:42395:1,2017-09-07T03:20:00Z,26.4040,-90.7920,0.0,30.0,11111222 
ADCP,ioos:station:wmo:42395:1,2017-09-07T04:20:00Z,26.4040,-90.7920,0.0,30.0,11111222 
ADCP,ioos:station:wmo:42395:1,2017-09-07T05:40:00Z,26.4040,-90.7920,0.0,30.0,11111222 
ADCP,ioos:station:wmo:42395:1,2017-09-07T06:40:00Z,26.4040,-90.7920,0.0,30.0,11111222 
ADCP,ioos:station:wmo:42395:1,2017-09-07T08:20:00Z,26.4040,-90.7920,0.0,30.0,11111222 
ADCP,ioos:station:wmo:42395:1,2017-09-07T09:20:00Z,26.4040,-90.7920,0.0,30.0,11111222 
ADCP,ioos:station:wmo:42395:1,2017-09-07T10:20:00Z,26.4040,-90.7920,0.0,30.0,11111222 
ADCP,ioos:station:wmo:42395:1,2017-09-07T11:20:00Z,26.4040,-90.7920,0.0,30.0,11111222 
ADCP,ioos:station:wmo:42395:1,2017-09-07T12:40:00Z,26.4040,-90.7920,0.0,30.04,2 
ADCP,ioos:station:wmo:42395:1,2017-09-07T13:40:00Z,26.4040,-90.7920,0.0,30.04,2 
ADCP,ioos:station:wmo:42395:1,2017-09-07T15:20:00Z,26.4040,-90.7920,0.0,30.08,2 
ADCP,ioos:station:wmo:42395:1,2017-09-07T16:20:00Z,26.4040,-90.7920,0.0,30.08,2 
ADCP,ioos:station:wmo:42395:1,2017-09-07T17:20:00Z,26.4040,-90.7920,0.0,30.12,2 
ADCP,ioos:station:wmo:42395:1,2017-09-07T18:20:00Z,26.4040,-90.7920,0.0,30.08,2 
ADCP,ioos:station:wmo:42395:1,2017-09-07T19:40:00Z,26.4040,-90.7920,0.0,30.08,2 
ADCP,ioos:station:wmo:42395:1,2017-09-07T21:00:00Z,26.4040,-90.7920,0.0,30.04,2 
ADCP,ioos:station:wmo:42395:1,2017-09-07T22:20:00Z,26.4040,-90.7920,0.0,30.04,2 
ADCP,ioos:station:wmo:42395:1,2017-09-07T23:20:00Z,26.4040,-90.7920,0.0,30.04,2 
ADCP,ioos:station:wmo:42395:1,2017-09-08T00:20:00Z,26.4040,-90.7920,0.0,30.04,2 
ADCP,ioos:station:wmo:42395:1,2017-09-08T01:40:00Z,26.4040,-90.7920,0.0,30.04,2 
ADCP,ioos:station:wmo:42395:1,2017-09-08T02:40:00Z,26.4040,-90.7920,0.0,30.04,2 
ADCP,ioos:station:wmo:42395:1,2017-09-08T04:00:00Z,26.4040,-90.7920,0.0,30.08,2 
ADCP,ioos:station:wmo:42395:1,2017-09-08T05:20:00Z,26.4040,-90.7920,0.0,30.08,2 
ADCP,ioos:station:wmo:42395:1,2017-09-08T06:20:00Z,26.4040,-90.7920,0.0,30.04,2 
ADCP,ioos:station:wmo:42395:1,2017-09-08T07:20:00Z,26.4040,-90.7920,0.0,30.04,2 
ADCP,ioos:station:wmo:42395:1,2017-09-08T08:40:00Z,26.4040,-90.7920,0.0,30.04,2 
ADCP,ioos:station:wmo:42395:1,2017-09-08T09:40:00Z,26.4040,-90.7920,0.0,30.04,2 
ADCP,ioos:station:wmo:42395:1,2017-09-08T11:20:00Z,26.4040,-90.7920,0.0,30.0,2 
ADCP,ioos:station:wmo:42395:1,2017-09-08T12:20:00Z,26.4040,-90.7920,0.0,30.04,2 
ADCP,ioos:station:wmo:42395:1,2017-09-08T13:20:00Z,26.4040,-90.7920,0.0,30.08,2 
ADCP,ioos:station:wmo:42395:1,2017-09-08T14:20:00Z,26.4040,-90.7920,0.0,30.08,2 
ADCP,ioos:station:wmo:42395:1,2017-09-08T15:40:00Z,26.4040,-90.7920,0.0,30.12,2 
ADCP,ioos:station:wmo:42395:1,2017-09-08T16:40:00Z,26.4040,-90.7920,0.0,30.16,2 
ADCP,ioos:station:wmo:42395:1,2017-09-08T18:20:00Z,26.4040,-90.7920,0.0,30.23,2 
ADCP,ioos:station:wmo:42395:1,2017-09-08T19:20:00Z,26.4040,-90.7920,0.0,30.23,2 
ADCP,ioos:station:wmo:42395:1,2017-09-08T20:20:00Z,26.4040,-90.7920,0.0,30.23,2 
ADCP,ioos:station:wmo:42395:1,2017-09-08T21:20:00Z,26.4040,-90.7920,0.0,30.23,2 
ADCP,ioos:station:wmo:42395:1,2017-09-08T22:40:00Z,26.4040,-90.7920,0.0,30.16,2 
ADCP,ioos:station:wmo:42395:1,2017-09-08T23:40:00Z,26.4040,-90.7920,0.0,30.16,2 
ADCP,ioos:station:wmo:42395:1,2017-09-09T01:20:00Z,26.4040,-90.7920,0.0,30.12,2 
ADCP,ioos:station:wmo:42395:1,2017-09-09T02:20:00Z,26.4040,-90.7920,0.0,30.12,2 
ADCP,ioos:station:wmo:42395:1,2017-09-09T03:20:00Z,26.4040,-90.7920,0.0,30.04,2 
ADCP,ioos:station:wmo:42395:1,2017-09-09T04:20:00Z,26.4040,-90.7920,0.0,30.0,2 
ADCP,ioos:station:wmo:42395:1,2017-09-09T05:40:00Z,26.4040,-90.7920,0.0,29.96,2 
ADCP,ioos:station:wmo:42395:1,2017-09-09T06:40:00Z,26.4040,-90.7920,0.0,29.96,2 
ADCP,ioos:station:wmo:42395:1,2017-09-09T08:20:00Z,26.4040,-90.7920,0.0,29.92,2 
ADCP,ioos:station:wmo:42395:1,2017-09-09T09:20:00Z,26.4040,-90.7920,0.0,29.92,2 
ADCP,ioos:station:wmo:42395:1,2017-09-09T10:20:00Z,26.4040,-90.7920,0.0,29.92,2 
ADCP,ioos:station:wmo:42395:1,2017-09-09T11:40:00Z,26.4040,-90.7920,0.0,29.92,2 
ADCP,ioos:station:wmo:42395:1,2017-09-09T12:40:00Z,26.4040,-90.7920,0.0,29.92,2 
ADCP,ioos:station:wmo:42395:1,2017-09-09T13:40:00Z,26.4040,-90.7920,0.0,29.92,2 
ADCP,ioos:station:wmo:42395:1,2017-09-09T15:20:00Z,26.4040,-90.7920,0.0,29.92,2 
ADCP,ioos:station:wmo:42395:1,2017-09-09T16:20:00Z,26.4040,-90.7920,0.0,29.96,2 
ADCP,ioos:station:wmo:42395:1,2017-09-09T17:20:00Z,26.4040,-90.7920,0.0,30.0,2 
ADCP,ioos:station:wmo:42395:1,2017-09-09T18:40:00Z,26.4040,-90.7920,0.0,30.0,2 
ADCP,ioos:station:wmo:42395:1,2017-09-09T19:40:00Z,26.4040,-90.7920,0.0,30.0,11111222 
ADCP,ioos:station:wmo:42395:1,2017-09-09T21:00:00Z,26.4040,-90.7920,0.0,30.04,2 
ADCP,ioos:station:wmo:42395:1,2017-09-09T22:20:00Z,26.4040,-90.7920,0.0,30.0,2 
ADCP,ioos:station:wmo:42395:1,2017-09-09T23:20:00Z,26.4040,-90.7920,0.0,30.0,2 
ADCP,ioos:station:wmo:42395:1,2017-09-10T00:20:00Z,26.4040,-90.7920,0.0,29.96,2 
ADCP,ioos:station:wmo:42395:1,2017-09-10T01:40:00Z,26.4040,-90.7920,0.0,29.96,2 
ADCP,ioos:station:wmo:42395:1,2017-09-10T02:40:00Z,26.4040,-90.7920,0.0,29.92,2 
ADCP,ioos:station:wmo:42395:1,2017-09-10T04:20:00Z,26.4040,-90.7920,0.0,29.88,2 
ADCP,ioos:station:wmo:42395:1,2017-09-10T05:20:00Z,26.4040,-90.7920,0.0,29.88,2 
ADCP,ioos:station:wmo:42395:1,2017-09-10T06:20:00Z,26.4040,-90.7920,0.0,29.84,2 
ADCP,ioos:station:wmo:42395:1,2017-09-10T07:20:00Z,26.4040,-90.7920,0.0,29.88,2 
ADCP,ioos:station:wmo:42395:1,2017-09-10T08:40:00Z,26.4040,-90.7920,0.0,29.88,2 
ADCP,ioos:station:wmo:42395:1,2017-09-10T09:40:00Z,26.4040,-90.7920,0.0,29.88,2 
ADCP,ioos:station:wmo:42395:1,2017-09-10T11:20:00Z,26.4040,-90.7920,0.0,29.84,2 
ADCP,ioos:station:wmo:42395:1,2017-09-10T12:20:00Z,26.4040,-90.7920,0.0,29.8,2 
ADCP,ioos:station:wmo:42395:1,2017-09-10T13:20:00Z,26.4040,-90.7920,0.0,29.8,2 
ADCP,ioos:station:wmo:42395:1,2017-09-10T14:20:00Z,26.4040,-90.7920,0.0,29.8,2 
ADCP,ioos:station:wmo:42395:1,2017-09-10T15:40:00Z,26.4040,-90.7920,0.0,29.8,2 
ADCP,ioos:station:wmo:42395:1,2017-09-10T16:40:00Z,26.4040,-90.7920,0.0,29.8,2 
ADCP,ioos:station:wmo:42395:1,2017-09-10T18:20:00Z,26.4040,-90.7920,0.0,29.8,2 
ADCP,ioos:station:wmo:42395:1,2017-09-10T19:20:00Z,26.4040,-90.7920,0.0,29.8,2 
ADCP,ioos:station:wmo:42395:1,2017-09-10T20:20:00Z,26.4040,-90.7920,0.0,29.8,2 
ADCP,ioos:station:wmo:42395:1,2017-09-10T21:20:00Z,26.4040,-90.7920,0.0,29.8,2 
ADCP,ioos:station:wmo:42395:1,2017-09-10T22:40:00Z,26.4040,-90.7920,0.0,29.8,2 
ADCP,ioos:station:wmo:42395:1,2017-09-10T23:40:00Z,26.4040,-90.7920,0.0,29.8,2 
ADCP,ioos:station:wmo:42395:1,2017-09-11T01:20:00Z,26.4040,-90.7920,0.0,29.77,2 
ADCP,ioos:station:wmo:42395:1,2017-09-11T02:20:00Z,26.4040,-90.7920,0.0,29.77,2 
ADCP,ioos:station:wmo:42395:1,2017-09-11T03:20:00Z,26.4040,-90.7920,0.0,29.73,2 
ADCP,ioos:station:wmo:42395:1,2017-09-11T04:20:00Z,26.4040,-90.7920,0.0,29.73,2 
ADCP,ioos:station:wmo:42395:1,2017-09-11T05:40:00Z,26.4040,-90.7920,0.0,29.69,2 
ADCP,ioos:station:wmo:42395:1,2017-09-11T06:40:00Z,26.4040,-90.7920,0.0,29.69,2 
ADCP,ioos:station:wmo:42395:1,2017-09-11T08:20:00Z,26.4040,-90.7920,0.0,29.65,2 
ADCP,ioos:station:wmo:42395:1,2017-09-11T09:20:00Z,26.4040,-90.7920,0.0,29.65,2 
ADCP,ioos:station:wmo:42395:1,2017-09-11T10:20:00Z,26.4040,-90.7920,0.0,29.61,2 
ADCP,ioos:station:wmo:42395:1,2017-09-11T11:40:00Z,26.4040,-90.7920,0.0,29.61,2 
ADCP,ioos:station:wmo:42395:1,2017-09-11T13:00:00Z,26.4040,-90.7920,0.0,29.57,2 
ADCP,ioos:station:wmo:42395:1,2017-09-11T13:40:00Z,26.4040,-90.7920,0.0,29.61,2 
ADCP,ioos:station:wmo:42395:1,2017-09-11T15:20:00Z,26.4040,-90.7920,0.0,29.61,2 
ADCP,ioos:station:wmo:42395:1,2017-09-11T16:20:00Z,26.4040,-90.7920,0.0,29.65,2 
ADCP,ioos:station:wmo:42395:1,2017-09-11T17:20:00Z,26.4040,-90.7920,0.0,29.69,2 
ADCP,ioos:station:wmo:42395:1,2017-09-11T18:40:00Z,26.4040,-90.7920,0.0,29.73,2 
ADCP,ioos:station:wmo:42395:1,2017-09-11T19:40:00Z,26.4040,-90.7920,0.0,29.77,2 
ADCP,ioos:station:wmo:42395:1,2017-09-11T21:00:00Z,26.4040,-90.7920,0.0,29.77,2 
ADCP,ioos:station:wmo:42395:1,2017-09-11T22:20:00Z,26.4040,-90.7920,0.0,29.73,2 
ADCP,ioos:station:wmo:42395:1,2017-09-11T23:20:00Z,26.4040,-90.7920,0.0,29.73,2 
ADCP,ioos:station:wmo:42395:1,2017-09-12T00:20:00Z,26.4040,-90.7920,0.0,29.69,2 
ADCP,ioos:station:wmo:42395:1,2017-09-12T01:40:00Z,26.4040,-90.7920,0.0,29.65,2 
ADCP,ioos:station:wmo:42395:1,2017-09-12T02:40:00Z,26.4040,-90.7920,0.0,29.65,2 
ADCP,ioos:station:wmo:42395:1,2017-09-12T04:00:00Z,26.4040,-90.7920,0.0,29.57,2 
ADCP,ioos:station:wmo:42395:1,2017-09-12T05:20:00Z,26.4040,-90.7920,0.0,29.61,2 
ADCP,ioos:station:wmo:42395:1,2017-09-12T05:40:00Z,26.4040,-90.7920,0.0,29.6,11111222 
ADCP,ioos:station:wmo:42395:1,2017-09-12T06:20:00Z,26.4040,-90.7920,0.0,29.61,2 
ADCP,ioos:station:wmo:42395:1,2017-09-12T07:20:00Z,26.4040,-90.7920,0.0,29.57,2 
ADCP,ioos:station:wmo:42395:1,2017-09-12T08:40:00Z,26.4040,-90.7920,0.0,29.53,2 
ADCP,ioos:station:wmo:42395:1,2017-09-12T09:40:00Z,26.4040,-90.7920,0.0,29.49,2 
ADCP,ioos:station:wmo:42395:1,2017-09-12T11:20:00Z,26.4040,-90.7920,0.0,29.49,2 
ADCP,ioos:station:wmo:42395:1,2017-09-12T12:20:00Z,26.4040,-90.7920,0.0,29.49,2 
ADCP,ioos:station:wmo:42395:1,2017-09-12T13:20:00Z,26.4040,-90.7920,0.0,29.49,2 
ADCP,ioos:station:wmo:42395:1,2017-09-12T14:20:00Z,26.4040,-90.7920,0.0,29.53,2 
ADCP,ioos:station:wmo:42395:1,2017-09-12T15:40:00Z,26.4040,-90.7920,0.0,29.57,2 
ADCP,ioos:station:wmo:42395:1,2017-09-12T16:40:00Z,26.4040,-90.7920,0.0,29.61,2 
ADCP,ioos:station:wmo:42395:1,2017-09-12T18:20:00Z,26.4040,-90.7920,0.0,29.69,2 
ADCP,ioos:station:wmo:42395:1,2017-09-12T19:20:00Z,26.4040,-90.7920,0.0,29.69,2 
ADCP,ioos:station:wmo:42395:1,2017-09-12T20:20:00Z,26.4040,-90.7920,0.0,29.73,2 
ADCP,ioos:station:wmo:42395:1,2017-09-12T21:20:00Z,26.4040,-90.7920,0.0,29.73,2 
ADCP,ioos:station:wmo:42395:1,2017-09-12T22:40:00Z,26.4040,-90.7920,0.0,29.69,2 
ADCP,ioos:station:wmo:42395:1,2017-09-12T23:40:00Z,26.4040,-90.7920,0.0,29.65,2 
ADCP,ioos:station:wmo:42395:1,2017-09-13T01:20:00Z,26.4040,-90.7920,0.0,29.61,2 
ADCP,ioos:station:wmo:42395:1,2017-09-13T02:20:00Z,26.4040,-90.7920,0.0,29.57,2 
ADCP,ioos:station:wmo:42395:1,2017-09-13T03:20:00Z,26.4040,-90.7920,0.0,29.57,2 
ADCP,ioos:station:wmo:42395:1,2017-09-13T04:20:00Z,26.4040,-90.7920,0.0,29.57,2 
ADCP,ioos:station:wmo:42395:1,2017-09-13T05:40:00Z,26.4040,-90.7920,0.0,29.57,2 
ADCP,ioos:station:wmo:42395:1,2017-09-13T06:40:00Z,26.4040,-90.7920,0.0,29.57,2 
ADCP,ioos:station:wmo:42395:1,2017-09-13T08:20:00Z,26.4040,-90.7920,0.0,29.53,2 
ADCP,ioos:station:wmo:42395:1,2017-09-13T09:20:00Z,26.4040,-90.7920,0.0,29.53,2 
ADCP,ioos:station:wmo:42395:1,2017-09-13T10:20:00Z,26.4040,-90.7920,0.0,29.57,2 
ADCP,ioos:station:wmo:42395:1,2017-09-13T11:40:00Z,26.4040,-90.7920,0.0,29.53,2 
ADCP,ioos:station:wmo:42395:1,2017-09-13T12:40:00Z,26.4040,-90.7920,0.0,29.57,2 
ADCP,ioos:station:wmo:42395:1,2017-09-13T14:00:00Z,26.4040,-90.7920,0.0,29.53,2 
ADCP,ioos:station:wmo:42395:1,2017-09-13T15:20:00Z,26.4040,-90.7920,0.0,29.53,2 
ADCP,ioos:station:wmo:42395:1,2017-09-13T16:20:00Z,26.4040,-90.7920,0.0,29.61,2 
ADCP,ioos:station:wmo:42395:1,2017-09-13T17:20:00Z,26.4040,-90.7920,0.0,29.8,2 
ADCP,ioos:station:wmo:42395:1,2017-09-13T18:40:00Z,26.4040,-90.7920,0.0,30.31,2 
ADCP,ioos:station:wmo:42395:1,2017-09-13T19:40:00Z,26.4040,-90.7920,0.0,30.78,2 
ADCP,ioos:station:wmo:42395:1,2017-09-13T21:20:00Z,26.4040,-90.7920,0.0,30.82,2 
ADCP,ioos:station:wmo:42395:1,2017-09-13T22:20:00Z,26.4040,-90.7920,0.0,31.05,2 
ADCP,ioos:station:wmo:42395:1,2017-09-13T23:20:00Z,26.4040,-90.7920,0.0,30.7,2 
ADCP,ioos:station:wmo:42395:1,2017-09-14T00:20:00Z,26.4040,-90.7920,0.0,30.66,2 
ADCP,ioos:station:wmo:42395:1,2017-09-14T01:40:00Z,26.4040,-90.7920,0.0,30.31,2 
ADCP,ioos:station:wmo:42395:1,2017-09-14T03:20:00Z,26.4040,-90.7920,0.0,29.96,2 
ADCP,ioos:station:wmo:42395:1,2017-09-14T04:20:00Z,26.4040,-90.7920,0.0,29.73,2 
ADCP,ioos:station:wmo:42395:1,2017-09-14T05:40:00Z,26.4040,-90.7920,0.0,29.65,2 
ADCP,ioos:station:wmo:42395:1,2017-09-14T06:40:00Z,26.4040,-90.7920,0.0,29.61,2 
ADCP,ioos:station:wmo:42395:1,2017-09-14T08:20:00Z,26.4040,-90.7920,0.0,29.57,2 
ADCP,ioos:station:wmo:42395:1,2017-09-14T09:20:00Z,26.4040,-90.7920,0.0,29.57,2 
ADCP,ioos:station:wmo:42395:1,2017-09-14T10:20:00Z,26.4040,-90.7920,0.0,29.57,2 
ADCP,ioos:station:wmo:42395:1,2017-09-14T11:40:00Z,26.4040,-90.7920,0.0,29.57,2 
ADCP,ioos:station:wmo:42395:1,2017-09-14T12:40:00Z,26.4040,-90.7920,0.0,29.57,2 
ADCP,ioos:station:wmo:42395:1,2017-09-14T14:00:00Z,26.4040,-90.7920,0.0,29.57,2 
ADCP,ioos:station:wmo:42395:1,2017-09-14T15:20:00Z,26.4040,-90.7920,0.0,29.69,2 
ADCP,ioos:station:wmo:42395:1,2017-09-14T16:20:00Z,26.4040,-90.7920,0.0,29.77,2 
ADCP,ioos:station:wmo:42395:1,2017-09-14T17:20:00Z,26.4040,-90.7920,0.0,29.96,2 
ADCP,ioos:station:wmo:42395:1,2017-09-14T18:40:00Z,26.4040,-90.7920,0.0,30.1,11111222 
ADCP,ioos:station:wmo:42395:1,2017-09-14T19:40:00Z,26.4040,-90.7920,0.0,30.16,2 
ADCP,ioos:station:wmo:42395:1,2017-09-14T21:00:00Z,26.4040,-90.7920,0.0,30.16,2 
ADCP,ioos:station:wmo:42395:1,2017-09-14T22:20:00Z,26.4040,-90.7920,0.0,30.04,2 
ADCP,ioos:station:wmo:42395:1,2017-09-14T23:20:00Z,26.4040,-90.7920,0.0,29.96,2 
ADCP,ioos:station:wmo:42395:1,2017-09-15T00:20:00Z,26.4040,-90.7920,0.0,29.96,2 
ADCP,ioos:station:wmo:42395:1,2017-09-15T01:40:00Z,26.4040,-90.7920,0.0,29.88,2 
ADCP,ioos:station:wmo:42395:1,2017-09-15T03:00:00Z,26.4040,-90.7920,0.0,29.84,2 
ADCP,ioos:station:wmo:42395:1,2017-09-15T04:20:00Z,26.4040,-90.7920,0.0,29.8,2 
ADCP,ioos:station:wmo:42395:1,2017-09-15T05:20:00Z,26.4040,-90.7920,0.0,29.77,2 